| time (UTC) | temp F | wind direction | speed MPH | gust MPH | rain 1hr in | rain 24hr in | rain mn in | humidity % | barometer mb |
| 20260906151946 | 82 | 0.0 | 0.0 | 0.00 | 0.00 | 0.00 | 45 | 1005.0 | |
| 20260906150412 | 79 | 0.0 | 0.0 | 0.00 | 0.00 | 0.00 | 47 | 1005.1 | |
| 20260906144836 | 77 | 0.0 | 0.0 | 0.00 | 0.00 | 0.00 | 48 | 1005.1 | |
| 20260906143302 | 74 | 0.0 | 0.0 | 0.00 | 0.00 | 0.00 | 52 | 1005.3 | |
| 20260906141727 | 71 | 0.0 | 0.0 | 0.00 | 0.00 | 0.00 | 55 | 1005.3 | |
| 20260906140152 | 71 | 0.0 | 0.0 | 0.00 | 0.00 | 0.00 | 56 | 1005.4 | |
| 20260906134617 | 71 | 0.0 | 0.0 | 0.00 | 0.00 | 0.00 | 57 | 1005.6 | |
| 20260906133042 | 71 | 0.0 | 0.0 | 0.00 | 0.00 | 0.00 | 57 | 1005.7 | |
| 20260906131507 | 71 | 0.0 | 0.0 | 0.00 | 0.00 | 0.00 | 58 | 1005.9 | |
| 20260906125932 | 70 | 0.0 | 0.0 | 0.00 | 0.00 | 0.00 | 59 | 1006.0 | |
| 20260906124357 | 70 | 0.0 | 0.0 | 0.00 | 0.00 | 0.00 | 60 | 1006.2 | |
| 20260906122823 | 70 | 0.0 | 0.0 | 0.00 | 0.00 | 0.00 | 60 | 1006.3 | |
| 20260906121248 | 69 | 0.0 | 0.0 | 0.00 | 0.00 | 0.00 | 61 | 1006.6 | |
| 20260906115712 | 69 | 0.0 | 0.0 | 0.00 | 0.00 | 0.00 | 62 | 1006.7 | |
| 20260906114137 | 68 | 0.0 | 0.0 | 0.00 | 0.00 | 0.00 | 64 | 1007.0 | |
| 20260906112602 | 68 | 0.0 | 0.0 | 0.00 | 0.00 | 0.00 | 65 | 1007.2 | |
| 20260906111028 | 68 | 0.0 | 0.0 | 0.00 | 0.00 | 0.00 | 66 | 1007.1 | |
| 20260906105453 | 67 | 0.0 | 0.0 | 0.00 | 0.00 | 0.00 | 67 | 1007.1 | |
| 20260906103918 | 66 | 0.0 | 0.0 | 0.00 | 0.00 | 0.00 | 69 | 1007.1 | |
| 20260906102343 | 65 | 0.0 | 0.0 | 0.00 | 0.00 | 0.00 | 70 | 1007.2 | |
| 20260906100808 | 64 | 0.0 | 0.0 | 0.00 | 0.00 | 0.00 | 72 | 1007.3 | |
| 20260906095233 | 64 | 0.0 | 0.0 | 0.00 | 0.00 | 0.00 | 73 | 1007.4 | |
| 20260906093658 | 64 | 0.0 | 0.0 | 0.00 | 0.00 | 0.00 | 75 | 1007.5 | |
| 20260906092123 | 64 | 0.0 | 0.0 | 0.00 | 0.00 | 0.00 | 77 | 1007.7 | |
| 20260906090548 | 61 | 0.0 | 0.0 | 0.00 | 0.00 | 0.00 | 81 | 1007.6 | |
| 20260906085013 | 60 | 0.0 | 0.0 | 0.00 | 0.00 | 0.00 | 82 | 1007.5 | |
| 20260906083438 | 60 | 0.0 | 0.0 | 0.00 | 0.00 | 0.00 | 84 | 1007.6 | |
| 20260906081903 | 59 | 0.0 | 0.0 | 0.00 | 0.00 | 0.00 | 85 | 1007.7 | |
| 20260906080329 | 58 | 0.0 | 0.0 | 0.00 | 0.00 | 0.00 | 87 | 1007.5 | |
| 20260906074754 | 57 | 0.0 | 0.0 | 0.00 | 0.00 | 0.00 | 88 | 1007.5 | |
| 20260906073219 | 56 | 0.0 | 0.0 | 0.00 | 0.00 | 0.00 | 89 | 1007.4 | |
| 20260906071644 | 55 | 0.0 | 0.0 | 0.00 | 0.00 | 0.00 | 90 | 1007.2 | |
| 20260906070109 | 53 | 0.0 | 0.0 | 0.00 | 0.00 | 0.00 | 91 | 1007.2 | |
| 20260906064534 | 52 | 0.0 | 0.0 | 0.00 | 0.00 | 0.00 | 91 | 1007.1 | |
| 20260906062959 | 51 | 0.0 | 0.0 | 0.00 | 0.00 | 0.00 | 92 | 1007.2 | |
| 20260906061424 | 50 | 0.0 | 0.0 | 0.00 | 0.00 | 0.00 | 92 | 1007.2 | |
| 20260906055849 | 49 | 0.0 | 0.0 | 0.00 | 0.00 | 0.00 | 92 | 1007.2 | |
| 20260906054314 | 48 | 0.0 | 0.0 | 0.00 | 0.00 | 0.00 | 92 | 1007.0 | |
| 20260906052739 | 47 | 0.0 | 0.0 | 0.00 | 0.00 | 0.00 | 93 | 1007.1 | |
| 20260906051205 | 46 | 0.0 | 0.0 | 0.00 | 0.00 | 0.00 | 93 | 1006.8 | |
| 20260906045630 | 46 | 0.0 | 0.0 | 0.00 | 0.00 | 0.00 | 93 | 1006.7 | |
| 20260906044055 | 46 | 0.0 | 0.0 | 0.00 | 0.00 | 0.00 | 93 | 1006.7 | |
| 20260906042520 | 46 | 0.0 | 0.0 | 0.00 | 0.00 | 0.00 | 93 | 1006.5 | |
| 20260906040945 | 46 | 0.0 | 0.0 | 0.00 | 0.00 | 0.00 | 92 | 1006.5 | |
| 20260906035410 | 47 | 0.0 | 0.0 | 0.00 | 0.00 | 0.00 | 91 | 1006.4 | |
| 20260906033835 | 47 | 0.0 | 0.0 | 0.00 | 0.00 | 0.00 | 91 | 1006.3 | |
| 20260906030725 | 48 | 0.0 | 0.0 | 0.00 | 0.00 | 0.00 | 89 | 1006.3 | |
| 20260906025150 | 48 | 0.0 | 0.0 | 0.00 | 0.00 | 0.00 | 88 | 1006.2 | |
| 20260906023615 | 49 | 0.0 | 0.0 | 0.00 | 0.00 | 0.00 | 87 | 1006.1 | |
| 20260906022041 | 49 | 0.0 | 0.0 | 0.00 | 0.00 | 0.00 | 86 | 1006.2 | |
| 20260906020506 | 50 | 0.0 | 0.0 | 0.00 | 0.00 | 0.00 | 85 | 1006.1 | |
| 20260906014931 | 50 | 0.0 | 0.0 | 0.00 | 0.00 | 0.00 | 84 | 1005.9 | |
| 20260906013356 | 50 | 0.0 | 0.0 | 0.00 | 0.00 | 0.00 | 83 | 1005.7 | |
| 20260906011821 | 51 | 0.0 | 0.0 | 0.00 | 0.00 | 0.00 | 83 | 1005.6 | |
| 20260906010246 | 51 | 0.0 | 0.0 | 0.00 | 0.00 | 0.00 | 81 | 1005.5 | |
| 20260906004711 | 52 | 0.0 | 0.0 | 0.00 | 0.00 | 0.00 | 80 | 1005.2 | |
| 20260906003136 | 53 | 0.0 | 0.0 | 0.00 | 0.00 | 0.00 | 80 | 1005.2 | |
| 20260906001602 | 53 | 0.0 | 0.0 | 0.00 | 0.00 | 0.00 | 79 | 1005.2 | |
| 20260906000026 | 53 | 0.0 | 0.0 | 0.00 | 0.00 | 0.00 | 79 | 1005.3 | |
| 20260905234452 | 53 | 0.0 | 0.0 | 0.00 | 0.00 | 0.00 | 78 | 1005.2 | |
| 20260905232916 | 53 | 0.0 | 0.0 | 0.00 | 0.00 | 0.00 | 78 | 1005.1 | |
| 20260905231432 | 54 | 0.0 | 0.0 | 0.00 | 0.00 | 0.00 | 77 | 1005.3 | |
| 20260905231342 | 54 | 0.0 | 0.0 | 0.00 | 0.00 | 0.00 | 77 | 1005.3 | |
| 20260905225807 | 54 | 0.0 | 0.0 | 0.00 | 0.00 | 0.00 | 76 | 1005.0 | |
| 20260905224233 | 55 | 0.0 | 0.0 | 0.00 | 0.00 | 0.00 | 75 | 1004.8 | |
| 20260905222657 | 56 | 0.0 | 0.0 | 0.00 | 0.00 | 0.00 | 75 | 1004.6 | |
| 20260905221122 | 56 | 0.0 | 0.0 | 0.00 | 0.00 | 0.00 | 74 | 1004.5 | |
| 20260905215547 | 57 | 0.0 | 0.0 | 0.00 | 0.00 | 0.00 | 74 | 1004.5 | |
| 20260905214012 | 57 | 0.0 | 0.0 | 0.00 | 0.00 | 0.00 | 73 | 1004.3 | |
| 20260905212437 | 58 | 0.0 | 0.0 | 0.00 | 0.00 | 0.00 | 72 | 1004.2 | |
| 20260905210902 | 58 | 0.0 | 0.0 | 0.00 | 0.00 | 0.00 | 71 | 1004.0 | |
| 20260905205327 | 59 | 0.0 | 0.0 | 0.00 | 0.00 | 0.00 | 70 | 1003.8 | |
| 20260905203753 | 59 | 0.0 | 0.0 | 0.00 | 0.00 | 0.00 | 70 | 1003.7 | |
| 20260905202218 | 60 | 0.0 | 0.0 | 0.00 | 0.00 | 0.00 | 69 | 1003.6 | |
| 20260905200643 | 60 | 0.0 | 0.0 | 0.00 | 0.00 | 0.00 | 68 | 1003.5 | |
| 20260905195108 | 61 | 0.0 | 0.0 | 0.00 | 0.00 | 0.00 | 67 | 1003.4 | |
| 20260905193533 | 62 | 0.0 | 0.0 | 0.00 | 0.00 | 0.00 | 66 | 1003.2 | |
| 20260905191958 | 62 | 0.0 | 0.0 | 0.00 | 0.00 | 0.00 | 66 | 1003.2 | |
| 20260905190423 | 62 | 0.0 | 0.0 | 0.00 | 0.00 | 0.00 | 66 | 1003.0 | |
| 20260905184848 | 62 | 0.0 | 0.0 | 0.00 | 0.00 | 0.00 | 65 | 1002.8 | |
| 20260905183313 | 63 | 0.0 | 0.0 | 0.00 | 0.00 | 0.00 | 65 | 1002.7 | |
| 20260905181738 | 63 | 0.0 | 0.0 | 0.00 | 0.00 | 0.00 | 64 | 1002.4 | |
| 20260905180203 | 63 | 0.0 | 0.0 | 0.00 | 0.00 | 0.00 | 63 | 1002.4 | |
| 20260905174628 | 64 | 0.0 | 0.0 | 0.00 | 0.00 | 0.00 | 62 | 1002.2 | |
| 20260905173053 | 65 | 0.0 | 0.0 | 0.00 | 0.00 | 0.00 | 60 | 1002.0 | |
| 20260905171519 | 66 | 0.0 | 0.0 | 0.00 | 0.00 | 0.00 | 59 | 1001.8 | |
| 20260905165944 | 68 | 0.0 | 0.0 | 0.00 | 0.00 | 0.00 | 58 | 1001.6 | |
| 20260905164409 | 68 | 0.0 | 0.0 | 0.00 | 0.00 | 0.00 | 57 | 1001.4 | |
| 20260905162834 | 69 | 0.0 | 0.0 | 0.00 | 0.00 | 0.00 | 57 | 1001.2 | |
| 20260905161259 | 71 | 0.0 | 0.0 | 0.00 | 0.00 | 0.00 | 55 | 1001.0 | |
| 20260905155724 | 72 | 0.0 | 0.0 | 0.00 | 0.00 | 0.00 | 55 | 1000.9 | |
| 20260905154149 | 71 | 0.0 | 0.0 | 0.00 | 0.00 | 0.00 | 55 | 1000.8 |